TimeAST,TemperatureF,Dew PointF,Humidity,Sea Level PressureIn,VisibilityMPH,Wind Direction,Wind SpeedMPH,Gust SpeedMPH,PrecipitationIn,Events,Conditions,WindDirDegrees,DateUTC
12:00 AM,71.6,68.0,88,30.09,6.2,NNE,5.8,-,N/A,,Partly Cloudy,20,2012-12-31 04:00:00
1:00 AM,71.6,68.0,88,30.06,6.2,North,5.8,-,N/A,,Partly Cloudy,10,2012-12-31 05:00:00
2:00 AM,71,67,84,30.08,10,NNE,6.7,,,,Scattered Clouds,20,2012-12-31 06:00:00
2:00 AM,71.6,68.0,88,30.06,6.2,NNE,5.8,-,N/A,,Partly Cloudy,20,2012-12-31 06:00:00
3:00 AM,69.8,66.2,88,30.06,6.2,NNE,4.6,-,N/A,,Partly Cloudy,20,2012-12-31 07:00:00
4:00 AM,68.0,66.2,94,30.06,6.2,North,5.8,-,N/A,,Partly Cloudy,10,2012-12-31 08:00:00
5:00 AM,68.0,66.2,94,30.06,6.2,North,5.8,-,N/A,,Partly Cloudy,10,2012-12-31 09:00:00
6:00 AM,66.2,64.4,94,30.06,6.2,North,4.6,-,N/A,,Partly Cloudy,10,2012-12-31 10:00:00
7:00 AM,64.4,62.6,94,30.06,6.2,North,4.6,-,N/A,,Mostly Cloudy,10,2012-12-31 11:00:00
8:00 AM,68,66,91,30.08,5,NNE,6.7,,,,Mostly Cloudy,20,2012-12-31 12:00:00
8:00 AM,68.0,64.4,88,29.95,5.0,NNE,5.8,-,N/A,,Scattered Clouds,20,2012-12-31 12:00:00
9:00 AM,71.6,68.0,88,30.12,6.2,ENE,9.2,-,N/A,,Mostly Cloudy,70,2012-12-31 13:00:00
10:00 AM,75.2,71.6,89,30.12,6.2,NE,4.6,-,N/A,,Mostly Cloudy,40,2012-12-31 14:00:00
11:00 AM,77,72,82,30.14,10,,67.1,,,,Mostly Cloudy,,2012-12-31 15:00:00
11:00 AM,77.0,73.4,89,30.12,6.2,NE,5.8,-,N/A,,Scattered Clouds,40,2012-12-31 15:00:00
12:00 PM,78.8,71.6,78,30.09,6.2,ENE,6.9,-,N/A,,Mostly Cloudy,70,2012-12-31 16:00:00
1:00 PM,82.4,73.4,74,30.09,6.2,East,10.4,-,N/A,,Mostly Cloudy,100,2012-12-31 17:00:00
2:00 PM,84.2,71.6,66,30.06,6.2,ENE,9.2,-,N/A,,Scattered Clouds,60,2012-12-31 18:00:00
3:00 PM,84.2,73.4,70,30.01,6.2,ENE,11.5,-,N/A,,Mostly Cloudy,60,2012-12-31 19:00:00
4:00 PM,84.2,73.4,70,30.01,6.2,NE,16.1,-,N/A,,Scattered Clouds,50,2012-12-31 20:00:00
5:00 PM,83,72,62,30.01,10,NE,13.4,,,,Partly Cloudy,40,2012-12-31 21:00:00
5:00 PM,82.4,71.6,70,30.01,6.2,NE,13.8,-,N/A,,Scattered Clouds,40,2012-12-31 21:00:00
6:00 PM,80.6,71.6,74,30.01,6.2,NE,9.2,-,N/A,,Scattered Clouds,50,2012-12-31 22:00:00
7:00 PM,78.8,71.6,78,30.04,6.2,NE,9.2,-,N/A,,Scattered Clouds,40,2012-12-31 23:00:00
8:00 PM,78.8,71.6,78,30.04,6.2,NE,9.2,-,N/A,,Partly Cloudy,50,2013-01-01 00:00:00
9:00 PM,75.2,71.6,89,30.06,6.2,NNE,5.8,-,N/A,,Partly Cloudy,30,2013-01-01 01:00:00
10:00 PM,75.2,71.6,89,30.06,6.2,NNE,9.2,-,N/A,,Partly Cloudy,20,2013-01-01 02:00:00
11:00 PM,73.4,69.8,88,30.06,6.2,North,6.9,-,N/A,,Partly Cloudy,10,2013-01-01 03:00:00